カタログに戻る

SL-12 R/B(2)

運用中HEO
NORAD 26486·ROCKET BODY·🇷🇺 Russia

打ち上げ Sep 5, 2000 から Baikonur Cosmodrome

Loading…

次のパス (今後24時間)

TLE

最新Source: Space-Track

元期: Sep 13, 2026, 11:47 UTC

1 26486U 00051D   26256.49152167  .00000059  00000-0  00000-0 0  9992
2 26486  63.2285 239.1358 6557449 277.8834 332.0904  1.45766918138521

AllMySatでSL-12 R/B(2)をリアルタイム追跡

Download on the App Store